| time (UTC) | temp F | wind direction | speed MPH | gust MPH | rain 1hr in | rain 24hr in | rain mn in | humidity % | barometer mb |
| 20260902000724 | 62 | 0.0 | 0.0 | 0.00 | 0.00 | 0.00 | 83 | 1013.6 | |
| 20260901235224 | 62 | 0.0 | 0.0 | 0.00 | 0.00 | 0.00 | 82 | 1013.9 | |
| 20260901233724 | 62 | 0.0 | 0.0 | 0.00 | 0.00 | 0.00 | 82 | 1013.8 | |
| 20260901232224 | 62 | 0.0 | 0.0 | 0.00 | 0.00 | 0.00 | 81 | 1013.7 | |
| 20260901230724 | 63 | 0.0 | 0.0 | 0.00 | 0.00 | 0.00 | 81 | 1013.9 | |
| 20260901225224 | 63 | 0.0 | 0.0 | 0.00 | 0.00 | 0.00 | 81 | 1013.8 | |
| 20260901223724 | 63 | 0.0 | 0.0 | 0.00 | 0.00 | 0.00 | 80 | 1013.6 | |
| 20260901222224 | 64 | 0.0 | 0.0 | 0.00 | 0.00 | 0.00 | 79 | 1013.6 | |
| 20260901220724 | 64 | 0.0 | 0.0 | 0.00 | 0.00 | 0.00 | 79 | 1014.0 | |
| 20260901215224 | 64 | 0.0 | 0.0 | 0.00 | 0.00 | 0.00 | 77 | 1013.0 | |
| 20260901213725 | 64 | 0.0 | 0.0 | 0.00 | 0.00 | 0.00 | 77 | 1013.3 | |
| 20260901212224 | 65 | 0.0 | 0.0 | 0.00 | 0.00 | 0.00 | 75 | 1013.3 | |
| 20260901210724 | 65 | 0.0 | 0.0 | 0.00 | 0.00 | 0.00 | 74 | 1013.5 | |
| 20260901205224 | 65 | 0.0 | 0.0 | 0.00 | 0.00 | 0.00 | 73 | 1013.5 | |
| 20260901203724 | 66 | 0.0 | 0.0 | 0.00 | 0.00 | 0.00 | 71 | 1013.2 | |
| 20260901202224 | 67 | 0.0 | 0.0 | 0.00 | 0.00 | 0.00 | 69 | 1013.1 | |
| 20260901200724 | 67 | 0.0 | 0.0 | 0.00 | 0.00 | 0.00 | 66 | 1013.2 | |
| 20260901195224 | 68 | 0.0 | 0.0 | 0.00 | 0.00 | 0.00 | 65 | 1013.0 | |
| 20260901193725 | 68 | 0.0 | 0.0 | 0.00 | 0.00 | 0.00 | 64 | 1013.2 | |
| 20260901192224 | 69 | 0.0 | 0.0 | 0.00 | 0.00 | 0.00 | 63 | 1012.7 | |
| 20260901190724 | 69 | 0.0 | 0.0 | 0.00 | 0.00 | 0.00 | 62 | 1012.7 | |
| 20260901185224 | 69 | 0.0 | 0.0 | 0.00 | 0.00 | 0.00 | 61 | ||
| 20260901183724 | 70 | 0.0 | 0.0 | 0.00 | 0.00 | 0.00 | 59 | ||
| 20260901182224 | 71 | 0.0 | 0.0 | 0.00 | 0.00 | 0.00 | 59 | ||
| 20260901180724 | 71 | 0.0 | 0.0 | 0.00 | 0.00 | 0.00 | 59 | ||
| 20260901175225 | 71 | 0.0 | 0.0 | 0.00 | 0.00 | 0.00 | 58 | 1011.9 | |
| 20260901173724 | 71 | 0.0 | 0.0 | 0.00 | 0.00 | 0.00 | 57 | 1011.9 | |
| 20260901172224 | 72 | 0.0 | 0.0 | 0.00 | 0.00 | 0.00 | 56 | 1011.4 | |
| 20260901170724 | 72 | 0.0 | 0.0 | 0.00 | 0.00 | 0.00 | 54 | 1011.7 | |
| 20260901165224 | 73 | 0.0 | 0.0 | 0.00 | 0.00 | 0.00 | 54 | 1011.4 | |
| 20260901163724 | 73 | 0.0 | 0.0 | 0.00 | 0.00 | 0.00 | 53 | 1011.0 | |
| 20260901162224 | 74 | 0.0 | 0.0 | 0.00 | 0.00 | 0.00 | 52 | 1010.9 | |
| 20260901160725 | 74 | 0.0 | 0.0 | 0.00 | 0.00 | 0.00 | 51 | 1011.5 | |
| 20260901155224 | 74 | 0.0 | 0.0 | 0.00 | 0.00 | 0.00 | 51 | 1012.7 | |
| 20260901153724 | 75 | 0.0 | 0.0 | 0.00 | 0.00 | 0.00 | 51 | 1010.8 | |
| 20260901152224 | 76 | 0.0 | 0.0 | 0.00 | 0.00 | 0.00 | 50 | 1011.5 | |
| 20260901150724 | 76 | 0.0 | 0.0 | 0.00 | 0.00 | 0.00 | 53 | 1011.8 | |
| 20260901145224 | 75 | 0.0 | 0.0 | 0.00 | 0.00 | 0.00 | 52 | 1010.7 | |
| 20260901143724 | 75 | 0.0 | 0.0 | 0.00 | 0.00 | 0.00 | 51 | 1011.8 | |
| 20260901142224 | 75 | 0.0 | 0.0 | 0.00 | 0.00 | 0.00 | 54 | 1010.3 | |
| 20260901140724 | 74 | 0.0 | 0.0 | 0.00 | 0.00 | 0.00 | 54 | 1010.6 | |
| 20260901135224 | 75 | 0.0 | 0.0 | 0.00 | 0.00 | 0.00 | 53 | 1012.2 | |
| 20260901133724 | 74 | 0.0 | 0.0 | 0.00 | 0.00 | 0.00 | 55 | 1012.2 | |
| 20260901132224 | 75 | 0.0 | 0.0 | 0.00 | 0.00 | 0.00 | 55 | 1010.9 | |
| 20260901130724 | 74 | 0.0 | 0.0 | 0.00 | 0.00 | 0.00 | 56 | 1012.9 | |
| 20260901125224 | 75 | 0.0 | 0.0 | 0.00 | 0.00 | 0.00 | 55 | 1012.2 | |
| 20260901123724 | 73 | 0.0 | 0.0 | 0.00 | 0.00 | 0.00 | 58 | 1013.0 | |
| 20260901122224 | 72 | 0.0 | 0.0 | 0.00 | 0.00 | 0.00 | 59 | 1012.0 | |
| 20260901120724 | 72 | 0.0 | 0.0 | 0.00 | 0.00 | 0.00 | 59 | 1011.7 | |
| 20260901115224 | 72 | 0.0 | 0.0 | 0.00 | 0.00 | 0.00 | 59 | 1011.9 | |
| 20260901113724 | 73 | 0.0 | 0.0 | 0.00 | 0.00 | 0.00 | 57 | 1011.8 | |
| 20260901112224 | 73 | 0.0 | 0.0 | 0.00 | 0.00 | 0.00 | 58 | 1012.4 | |
| 20260901110724 | 71 | 0.0 | 0.0 | 0.00 | 0.00 | 0.00 | 61 | 1013.1 | |
| 20260901105225 | 70 | 0.0 | 0.0 | 0.00 | 0.00 | 0.00 | 63 | 1012.4 | |
| 20260901103724 | 70 | 0.0 | 0.0 | 0.00 | 0.00 | 0.00 | 64 | 1013.1 | |
| 20260901102224 | 69 | 0.0 | 0.0 | 0.00 | 0.00 | 0.00 | 65 | 1012.3 | |
| 20260901100724 | 71 | 0.0 | 0.0 | 0.00 | 0.00 | 0.00 | 67 | 1012.9 | |
| 20260901095224 | 68 | 0.0 | 0.0 | 0.00 | 0.00 | 0.00 | 69 | 1012.0 | |
| 20260901093724 | 67 | 0.0 | 0.0 | 0.00 | 0.00 | 0.00 | 72 | 1011.6 | |
| 20260901092224 | 67 | 0.0 | 0.0 | 0.00 | 0.00 | 0.00 | 74 | 1012.3 | |
| 20260901090724 | 66 | 0.0 | 0.0 | 0.00 | 0.00 | 0.00 | 76 | 1011.7 | |
| 20260901085224 | 65 | 0.0 | 0.0 | 0.00 | 0.00 | 0.00 | 79 | 1011.5 | |
| 20260901083724 | 64 | 0.0 | 0.0 | 0.00 | 0.00 | 0.00 | 80 | 1011.6 | |
| 20260901082224 | 64 | 0.0 | 0.0 | 0.00 | 0.00 | 0.00 | 81 | 1011.7 | |
| 20260901080724 | 64 | 0.0 | 0.0 | 0.00 | 0.00 | 0.00 | 82 | 1011.2 | |
| 20260901075224 | 63 | 0.0 | 0.0 | 0.00 | 0.00 | 0.00 | 83 | 1011.1 | |
| 20260901073724 | 63 | 0.0 | 0.0 | 0.00 | 0.00 | 0.00 | 84 | 1010.9 | |
| 20260901072224 | 62 | 0.0 | 0.0 | 0.00 | 0.00 | 0.00 | 85 | 1011.1 | |
| 20260901070724 | 62 | 0.0 | 0.0 | 0.00 | 0.00 | 0.00 | 86 | 1010.8 | |
| 20260901065224 | 62 | 0.0 | 0.0 | 0.00 | 0.00 | 0.00 | 86 | 1010.1 | |
| 20260901063724 | 61 | 0.0 | 0.0 | 0.00 | 0.00 | 0.00 | 86 | 1010.3 | |
| 20260901062225 | 61 | 0.0 | 0.0 | 0.00 | 0.00 | 0.00 | 87 | 1010.3 | |
| 20260901060724 | 61 | 0.0 | 0.0 | 0.00 | 0.00 | 0.00 | 87 | 1010.6 | |
| 20260901055224 | 61 | 0.0 | 0.0 | 0.00 | 0.00 | 0.00 | 87 | 1010.6 | |
| 20260901053724 | 61 | 0.0 | 0.0 | 0.00 | 0.00 | 0.00 | 88 | 1010.0 | |
| 20260901052224 | 60 | 0.0 | 0.0 | 0.00 | 0.00 | 0.00 | 88 | 1010.2 | |
| 20260901050724 | 60 | 0.0 | 0.0 | 0.00 | 0.00 | 0.00 | 89 | 1010.0 | |
| 20260901045224 | 60 | 0.0 | 0.0 | 0.00 | 0.00 | 0.00 | 89 | 1009.8 | |
| 20260901043724 | 59 | 0.0 | 0.0 | 0.00 | 0.00 | 0.00 | 89 | 1009.4 | |
| 20260901042224 | 59 | 0.0 | 0.0 | 0.00 | 0.00 | 0.00 | 89 | 1009.1 | |
| 20260901040724 | 59 | 0.0 | 0.0 | 0.00 | 0.00 | 0.00 | 89 | 1009.1 | |
| 20260901035224 | 59 | 0.0 | 0.0 | 0.00 | 0.00 | 0.00 | 88 | 1007.6 | |
| 20260901033724 | 59 | 0.0 | 0.0 | 0.00 | 0.00 | 0.00 | 88 | 1008.6 | |
| 20260901032224 | 59 | 0.0 | 0.0 | 0.00 | 0.00 | 0.00 | 88 | 1008.8 | |
| 20260901030724 | 59 | 0.0 | 0.0 | 0.00 | 0.00 | 0.00 | 88 | 1008.8 | |
| 20260901025224 | 59 | 0.0 | 0.0 | 0.00 | 0.00 | 0.00 | 88 | 1008.9 | |
| 20260901023724 | 59 | 0.0 | 0.0 | 0.00 | 0.00 | 0.00 | 88 | 1008.5 | |
| 20260901022224 | 59 | 0.0 | 0.0 | 0.00 | 0.00 | 0.00 | 87 | 1008.0 | |
| 20260901020724 | 59 | 0.0 | 0.0 | 0.00 | 0.00 | 0.00 | 88 | 1008.6 | |
| 20260901015224 | 59 | 0.0 | 0.0 | 0.00 | 0.00 | 0.00 | 88 | 1008.5 | |
| 20260901013724 | 59 | 0.0 | 0.0 | 0.00 | 0.00 | 0.00 | 88 | 1008.3 | |
| 20260901012224 | 59 | 0.0 | 0.0 | 0.00 | 0.00 | 0.00 | 88 | 1009.2 | |
| 20260901010724 | 59 | 0.0 | 0.0 | 0.00 | 0.00 | 0.00 | 87 | 1007.8 | |
| 20260901005224 | 59 | 0.0 | 0.0 | 0.00 | 0.00 | 0.00 | 88 | 1008.9 | |
| 20260901003724 | 59 | 0.0 | 0.0 | 0.00 | 0.00 | 0.00 | 88 | 1007.6 | |
| 20260901002224 | 58 | 0.0 | 0.0 | 0.00 | 0.00 | 0.00 | 88 | 1008.1 |